User: anonymous   Login
Location: Hepcat Sky Observatory
(29.9800°N, 95.6500°W)
Time: 01:33:22
(UTC-05:00)
Language:

SL-16 Debris - Orbit

View from above orbital plane
View from above orbital plane
View from above satellite
View from above satellite

Ground track
Ground track

The orbit data is extracted from the following two-line orbital elements,

1 26076U 99040E   15009.64362633  .00020426  00000-0  12549-2 0  9998
2 26076 028.4653 184.9568 4660845 122.6168 344.2554 06.26654248256071
Epoch (UTC): 09 January 2015 15:26:49
Eccentricity: 0.4660845
inclination: 28.4653°
perigee height: 257 km
apogee height: 11841 km
right ascension of ascending node: 184.9568°
argument of perigee: 122.6168°
revolutions per day: 6.26654248
mean anomaly at epoch: 344.2554°
orbit number at epoch: 25607

The dashed part of the orbit path shows where the satellite is in the earth's shadow,  

DLR